Location: Marcé
(47.5801°N, 0.3280°W)
Time: 20:15:44
(UTC+01:00)

Altair - Pass Details

Date: 15 December 2021
Orbit: 1501 x 1683 km, 47.2° (Epoch: 20 January)

Event Time Altitude Azimuth Distance (km) Brightness Sun altitude
Rises 15:48:03 0° 262° (W) 4,827 10.9 9.3°
Reaches altitude 10° 15:51:12 10° 262° (W) 3,817 10.4 9.0°
Maximum altitude 16:00:54 88° 176° (S) 1,562 7.8 7.9°
Drops below altitude 10° 16:10:15 10° 87° (E) 3,685 9.1 6.9°
Sets 16:13:15 0° 88° (E) 4,654 9.6 6.5°
